| time (UTC) | temp F | wind direction | speed knots | gust knots | rain 1hr in | rain 24hr in | rain mn in | humidity % | barometer mb |
| 20260504204538 | 76 | 320 | 10.4 | 20.9 | 0.00 | 0.00 | 0.00 | 45 | 997.9 |
| 20260504203029 | 76 | 359 | 13.0 | 23.5 | 0.00 | 0.00 | 0.00 | 44 | 997.7 |
| 20260504201528 | 76 | 359 | 11.3 | 23.5 | 0.00 | 0.00 | 0.00 | 44 | 997.8 |
| 20260504200026 | 77 | 359 | 9.6 | 20.9 | 0.00 | 0.00 | 0.00 | 43 | 998.0 |
| 20260504194524 | 77 | 359 | 10.4 | 29.5 | 0.00 | 0.00 | 0.00 | 45 | 998.1 |
| 20260504193024 | 77 | 264 | 9.6 | 26.1 | 0.00 | 0.00 | 0.00 | 44 | 998.1 |
| 20260504191522 | 76 | 359 | 7.0 | 22.6 | 0.00 | 0.00 | 0.00 | 45 | 998.4 |
| 20260504190017 | 75 | 359 | 7.0 | 14.8 | 0.00 | 0.00 | 0.00 | 48 | 998.5 |
| 20260504184514 | 75 | 359 | 5.2 | 15.6 | 0.00 | 0.00 | 0.00 | 49 | 998.8 |
| 20260504183012 | 75 | 261 | 9.6 | 15.6 | 0.00 | 0.00 | 0.00 | 50 | 999.0 |
| 20260504181511 | 73 | 359 | 7.0 | 16.5 | 0.00 | 0.00 | 0.00 | 53 | 999.2 |
| 20260504180005 | 72 | 359 | 5.2 | 16.5 | 0.00 | 0.00 | 0.00 | 55 | 999.5 |
| 20260504174503 | 72 | 180 | 5.2 | 11.3 | 0.00 | 0.00 | 0.00 | 55 | 999.8 |
| 20260504173059 | 71 | 189 | 6.1 | 15.6 | 0.00 | 0.00 | 0.00 | 56 | 1000.0 |
| 20260504171556 | 71 | 229 | 7.8 | 14.8 | 0.00 | 0.00 | 0.00 | 57 | 1000.3 |
| 20260504081600 | 51 | 359 | 2.6 | 10.4 | 0.00 | 0.00 | 0.00 | 76 | 1003.5 |
| 20260504044533 | 52 | 359 | 2.6 | 9.6 | 0.00 | 0.00 | 0.00 | 74 | 1005.6 |
| 20260504043032 | 53 | 209 | 2.6 | 7.8 | 0.00 | 0.00 | 0.00 | 73 | 1005.7 |
| 20260504041621 | 53 | 194 | 2.6 | 7.8 | 0.00 | 0.00 | 0.00 | 73 | 1005.8 |
| 20260504040021 | 53 | 242 | 4.3 | 7.8 | 0.00 | 0.00 | 0.00 | 71 | 1005.8 |
| 20260504034517 | 53 | 359 | 3.5 | 9.6 | 0.00 | 0.00 | 0.00 | 71 | 1006.0 |
| 20260504033016 | 53 | 197 | 2.6 | 7.0 | 0.00 | 0.00 | 0.00 | 71 | 1006.1 |
| 20260504031518 | 53 | 184 | 3.5 | 7.0 | 0.00 | 0.00 | 0.00 | 71 | 1006.1 |
| 20260504030015 | 53 | 223 | 3.5 | 7.0 | 0.00 | 0.00 | 0.00 | 71 | 1006.1 |
| 20260504024515 | 53 | 249 | 2.6 | 7.8 | 0.00 | 0.00 | 0.00 | 71 | 1006.2 |
| 20260504023014 | 53 | 190 | 2.6 | 7.8 | 0.00 | 0.00 | 0.00 | 71 | 1006.1 |
| 20260504021515 | 53 | 182 | 3.5 | 6.1 | 0.00 | 0.00 | 0.00 | 71 | 1006.1 |
| 20260504020013 | 54 | 168 | 2.6 | 6.1 | 0.00 | 0.00 | 0.00 | 69 | 1006.1 |
| 20260504014513 | 55 | 171 | 2.6 | 8.7 | 0.00 | 0.00 | 0.00 | 66 | 1006.0 |
| 20260504013017 | 55 | 359 | 4.3 | 9.6 | 0.00 | 0.00 | 0.00 | 66 | 1006.1 |
| 20260504011511 | 56 | 359 | 4.3 | 11.3 | 0.00 | 0.00 | 0.00 | 66 | 1006.2 |
| 20260504010010 | 56 | 203 | 3.5 | 10.4 | 0.00 | 0.00 | 0.00 | 67 | 1006.2 |
| 20260504004516 | 55 | 214 | 1.7 | 7.0 | 0.00 | 0.00 | 0.00 | 70 | 1006.2 |
| 20260504003009 | 55 | 167 | 0.9 | 5.2 | 0.00 | 0.00 | 0.00 | 75 | 1006.1 |
| 20260504001508 | 55 | 182 | 2.6 | 6.1 | 0.00 | 0.00 | 0.00 | 76 | 1006.2 |
| 20260504000006 | 55 | 167 | 3.5 | 6.1 | 0.00 | 0.00 | 0.00 | 75 | 1006.4 |
| 20260503234504 | 55 | 168 | 4.3 | 9.6 | 0.00 | 0.00 | 0.00 | 75 | 1006.6 |
| 20260503233001 | 55 | 180 | 2.6 | 7.8 | 0.00 | 0.00 | 0.00 | 76 | 1006.9 |
| 20260503231602 | 55 | 359 | 4.3 | 13.0 | 0.00 | 0.00 | 0.00 | 76 | 1007.0 |
| 20260503230113 | 55 | 175 | 3.5 | 10.4 | 0.00 | 0.00 | 0.00 | 76 | 1007.1 |
| 20260503224559 | 54 | 156 | 4.3 | 9.6 | 0.00 | 0.00 | 0.00 | 75 | 1007.5 |
| 20260503223052 | 53 | 176 | 4.3 | 8.7 | 0.00 | 0.00 | 0.00 | 77 | 1007.7 |
| 20260503221550 | 52 | 359 | 1.7 | 8.7 | 0.00 | 0.00 | 0.00 | 78 | 1007.9 |
| 20260503220049 | 51 | 195 | 4.3 | 10.4 | 0.00 | 0.00 | 0.00 | 78 | 1007.9 |
| 20260503214549 | 52 | 164 | 5.2 | 11.3 | 0.00 | 0.00 | 0.00 | 78 | 1008.2 |
| 20260503213046 | 50 | 163 | 6.1 | 13.9 | 0.00 | 0.00 | 0.00 | 81 | 1008.2 |
| 20260503211603 | 49 | 156 | 3.5 | 11.3 | 0.00 | 0.00 | 0.00 | 85 | 1008.3 |
| 20260503210043 | 48 | 155 | 3.5 | 9.6 | 0.00 | 0.00 | 0.00 | 86 | 1008.5 |